This is the latest recevied weather packets stored in our database for station/object OH2HCY. If no packets are shown the sender has not sent any weather packets the latest 10 day(s).
| Time | Temp. | Humidity | Pressure | Rain* | Wind** | Luminosity | Snow |
|---|---|---|---|---|---|---|---|
| 1777710510 | 18.33° C | 39% | 1003.4 hPa | - | - | - | - |
| 1777709940 | 18.33° C | 39% | 1003.5 hPa | - | - | - | - |
| 1777709365 | 18.33° C | 38% | 1003.8 hPa | - | - | - | - |
| 1777708820 | 17.78° C | 40% | 1004.2 hPa | - | - | - | - |
| 1777708305 | 17.22° C | 41% | 1004.6 hPa | - | - | - | - |
| 1777707755 | 16.67° C | 42% | 1004.7 hPa | - | - | - | - |
| 1777707239 | 16.11° C | 44% | 1004.9 hPa | - | - | - | - |
| 1777706650 | 15.56° C | 45% | 1005.2 hPa | - | - | - | - |
| 1777706103 | 15° C | 47% | 1005.6 hPa | - | - | - | - |
| 1777705585 | 15° C | 49% | 1005.8 hPa | - | - | - | - |
| 1777705015 | 14.44° C | 50% | 1006 hPa | - | - | - | - |
| 1777704487 | 13.89° C | 52% | 1006.2 hPa | - | - | - | - |
| 1777703965 | 13.33° C | 53% | 1006.5 hPa | - | - | - | - |
| 1777703440 | 13.33° C | 54% | 1006.6 hPa | - | - | - | - |
| 1777702860 | 12.78° C | 56% | 1006.9 hPa | - | - | - | - |
| 1777702335 | 12.22° C | 56% | 1007 hPa | - | - | - | - |
| 1777701804 | 11.67° C | 58% | 1007.3 hPa | - | - | - | - |
| 1777701240 | 11.11° C | 60% | 1007.5 hPa | - | - | - | - |
| 1777700715 | 11.11° C | 61% | 1007.6 hPa | - | - | - | - |
| 1777700180 | 10.56° C | 62% | 1007.9 hPa | - | - | - | - |
| 1777699642 | 10° C | 65% | 1008.3 hPa | - | - | - | - |
| 1777699090 | 9.44° C | 68% | 1008.6 hPa | - | - | - | - |
| 1777698580 | 8.89° C | 70% | 1009.1 hPa | - | - | - | - |
| 1777698019 | 8.33° C | 72% | 1009.2 hPa | - | - | - | - |
| 1777697457 | 7.78° C | 73% | 1009.5 hPa | - | - | - | - |
* Rain since midnight (hover to see other rain measurements)
** Current wind speed in m/s (hover to see current wind gust speed)